Location: Glen Avon
(34.0117°N, 117.4848°W)
Time: 19:51:15
(UTC+00:00)

Cosmos 1484 Rocket - Pass Details

Date: 01 August 2021
Orbit: 504 x 558 km, 97.4° (Epoch: 20 September)

Event Time Altitude Azimuth Distance (km) Brightness Sun altitude
Rises 12:09:19 0° 10° (N) 2,740 7.0 -10.6°
Reaches altitude 10° 12:11:27 10° 10° (N) 1,845 6.1 -10.2°
Maximum altitude 12:15:27 83° 282° (WNW) 566 2.8 -9.5°
Drops below altitude 10° 12:19:26 10° 195° (SSW) 1,836 5.1 -8.7°
Enters shadow 12:21:25 - 194° (SSW) 2,664 5.9 -8.4°
